TimePDT,TemperatureF,Dew PointF,Humidity,Sea Level PressureIn,VisibilityMPH,Wind Direction,Wind SpeedMPH,Gust SpeedMPH,PrecipitationIn,Events,Conditions,WindDirDegrees,DateUTC
12:56 AM,61.0,54.0,78,30.09,10.0,Calm,Calm,-,N/A,,Partly Cloudy,0,2012-10-06 07:56:00
1:56 AM,60.1,53.1,78,30.10,10.0,Calm,Calm,-,N/A,,Clear,0,2012-10-06 08:56:00
2:56 AM,57.9,53.1,84,30.09,10.0,Calm,Calm,-,N/A,,Clear,0,2012-10-06 09:56:00
3:56 AM,57.9,53.1,84,30.08,10.0,Calm,Calm,-,N/A,,Clear,0,2012-10-06 10:56:00
4:56 AM,57.9,52.0,81,30.07,10.0,Calm,Calm,-,N/A,,Partly Cloudy,0,2012-10-06 11:56:00
5:56 AM,57.0,52.0,83,30.08,10.0,Calm,Calm,-,N/A,,Clear,0,2012-10-06 12:56:00
6:56 AM,57.9,52.0,81,30.08,10.0,Calm,Calm,-,N/A,,Clear,0,2012-10-06 13:56:00
7:56 AM,57.0,52.0,83,30.09,10.0,Calm,Calm,-,N/A,,Clear,0,2012-10-06 14:56:00
8:56 AM,61.0,55.0,81,30.09,10.0,Calm,Calm,-,N/A,,Clear,0,2012-10-06 15:56:00
9:56 AM,64.9,55.9,73,30.09,10.0,Variable,3.5,-,N/A,,Clear,0,2012-10-06 16:56:00
10:56 AM,64.9,55.9,73,30.09,10.0,North,5.8,-,N/A,,Clear,360,2012-10-06 17:56:00
11:56 AM,66.9,53.1,61,30.08,10.0,North,5.8,-,N/A,,Clear,350,2012-10-06 18:56:00
12:56 PM,69.1,50.0,51,30.06,10.0,North,6.9,-,N/A,,Clear,360,2012-10-06 19:56:00
1:56 PM,71.1,50.0,47,30.04,10.0,NNW,12.7,-,N/A,,Clear,340,2012-10-06 20:56:00
2:56 PM,71.1,48.9,45,30.03,10.0,NNW,10.4,-,N/A,,Clear,340,2012-10-06 21:56:00
3:56 PM,71.1,48.0,44,30.01,10.0,NNW,13.8,-,N/A,,Clear,340,2012-10-06 22:56:00
4:56 PM,71.1,48.9,45,30.00,10.0,North,13.8,-,N/A,,Clear,350,2012-10-06 23:56:00
5:56 PM,70.0,48.9,47,29.99,10.0,NNW,12.7,-,N/A,,Clear,340,2012-10-07 00:56:00
6:56 PM,66.9,48.9,52,29.99,10.0,NW,6.9,-,N/A,,Clear,320,2012-10-07 01:56:00
7:56 PM,63.0,48.9,60,30.00,10.0,NNW,8.1,-,N/A,,Clear,340,2012-10-07 02:56:00
8:56 PM,61.0,48.0,62,30.01,10.0,NNW,8.1,-,N/A,,Clear,340,2012-10-07 03:56:00
9:56 PM,60.1,48.9,67,30.01,10.0,NNW,5.8,-,N/A,,Clear,330,2012-10-07 04:56:00
10:56 PM,60.1,48.9,67,30.02,10.0,NW,9.2,-,N/A,,Clear,320,2012-10-07 05:56:00
11:56 PM,59.0,48.9,69,30.02,10.0,West,3.5,-,N/A,,Clear,260,2012-10-07 06:56:00